Powrót do katalogu

FENGYUN 1C DEB

AktywnySSO
NORAD 43359·DEBRIS·🇨🇳 China

Wystrzelony May 10, 1999 z Taiyuan Satellite Launch Center

Loading…

Następne Przeloty (najbliższe 24 godziny)

TLE

ŚwieżeSource: Space-Track

Epoka: Sep 14, 2026, 05:00 UTC

1 43359U 99025EYQ 26257.20894724  .00002615  00000-0  10961-2 0  9990
2 43359  99.0472 350.4408 0071154 302.3153  57.1148 14.25540169516719

Śledź FENGYUN 1C DEB w czasie rzeczywistym z AllMySat

Download on the App Store